Location: Bermeries
(50.2863°N, 3.7551°E)
Time: 10:10:54
(UTC+00:00)

Cosmos 1408 - Pass Details

Date: 23 May 2024
Orbit: 363 x 378 km, 82.6° (Epoch: 14 June)

Event Time Altitude Azimuth Distance (km) Brightness Sun altitude
Exits shadow 02:56:23 - 237° (WSW) 1,403 4.3 -7.1°
Reaches altitude 10° 02:56:31 10° 238° (WSW) 1,358 4.2 -7.1°
Maximum altitude 02:58:47 20° 289° (WNW) 925 3.7 -6.8°
Drops below altitude 10° 03:01:04 10° 340° (NNW) 1,367 5.2 -6.6°
Sets 03:03:23 0° 358° (N) 2,222 6.6 -6.3°
